Find Starlink 3344

NORAD ID: 51110 Int'l Des: 2022-005 Owner: SPXS Country: US Constellation: starlink operational
LEOCIRCULAR

Live Position

Loading 3D Globe...

About Starlink 3344

Description loading...

Upcoming Passes

Passes for default location (London). Set your location on the main map for personalized predictions.

Altitude History

Loading altitude history...

Two-Line Element Set

1 51110U 22005G 26126.99031826 -.00000425 00000-0 -86460-5 0 9994
2 51110 53.2199 27.3760 0001324 89.1922 270.9222 15.08825459237682
Epoch: May 6, 2026 • Age: 5 hours

Current Status

Altitude 545.5 km
Velocity 7.60 km/s
Sub-Earth Point 53.28°N, 178.17°W
Launch Date Jan 19, 2022
Age 4.2 years
Type internet

Technical Details

Classification Payload
Mass 297.00 kg
Dry Mass 275.00 kg
Total Mass 297.00 kg
Length 0.20 m
Diameter 2.80 m
Span 9.00 m
Shape Box + pan
Manufacturer SPXS
Bus Type Starlink
Phase Status In Orbit
Owner/State SPXS/US

Most Searched